Rbgn^[z[y[W
メイン
   新天体発見情報
     Comet C/2025 O2 (MAPS)
投稿するにはまず登録を

フラット表示 前のトピック | 次のトピック
投稿者 スレッド
佐藤裕久
投稿日時: 2025-9-3 17:18
モデレータ
登録日: 2005-6-12
居住地: 日本
投稿: 2676
オンライン
Comet C/2025 O2 (MAPS)

Alain Maury (San Pedro de Atacama, チリ)の通報によると、7月25日UT、MAPSサーベイ(CBET 5567参照)の
コースに、28-cm Celestron RASA Schmidt アストログラフで得た画像から、ややぼやけた天体として彗星を
発見した。3".5のシーイングで、5".2(半値全幅:FWHM)の頭部が見え、わずかに伸びている。
小惑星センターのPCCP webpageに公表され、佐藤英貴氏(東京都文京区)によると、8月10.3日UT、チリ Rio 
Hurtadoにある0.51-m f/6.8 アストログラフで得た、30-秒CCD露出40枚のスタックでは、恒星状に見えるだ
けであった。2".2の円形範囲で測定した光度は20.2等であった。
A. Aletti (Varese, イタリア)によると8月22.04-22.08日、F. Bellini、L. Buzzi、 G. Galliと彼自身により、
Hakos, ナミビアにある0.36-m f/8.6反射望遠鏡で得た、200枚の300-秒露出CMOSスタック画像では、6"のコマ
が見え、p.a. 270°に細長く伸びている。 
R. Weryk (西オンタリオ大学,物理および天文学科)の報告によると、8月27.6日、HaleakalaのPan-STARRS1 
1.8-m Ritchey-Chretien反射望遠鏡で得た、4枚45-秒のw-バンドサーベイ画像では、1".2-1".5のシーイング
で、2".4 (FWHM)の拡散したコマが見え、p.a. 270-360°にわたって6"の広い尾がある。

彗星機能の報告は次のとおり、

OC   Date        Reporter            Coma    Tail   PA   Comet     Date
                                                        (T/P)   Reported
W94  2025-07-25  A. Maury            5"        8"  245    T   2025-07-28.47
J43  2025-07-31  C. Rinner           8"        6"  250    T   2025-07-31.57
M21  2025-08-22  A. Aletti           6"                   T   2025-08-25.90
F51  2025-08-27  R. Weryk            1"        6"  270    T   2025-08-28.09
807  2025-08-27  L. Hutton           7"                   P   2025-08-27.36

発見位置は次のとおり、(5GO4M21)

     2025 UT             R.A. (2000) Decl.       Mag.
     July 25.39965    3 41 11.97   -17 14 38.9   18.8
          25.40596    3 41 11.59   -17 14 45.4   18.8
          25.41225    3 41 11.27   -17 14 51.2   18.8

MPCの双曲線軌道要素、位置推算表は次のとおり、

Orbital elements:
    C/2025 O2 (MAPS)                                                            
Epoch 2025 May 5.0 TT = JDT 2460800.5                                           
T 2025 May 24.05125 TT                                  Veres                   
q   2.2910288            (2000.0)            P               Q                  
z  -0.0011007      Peri.  280.34971     +0.48016017     +0.81216255             
 +/-0.0008599      Node   332.27760     +0.76275500     -0.57316069             
e   1.0025217      Incl.  134.56625     -0.43318705     -0.10899003             
From 84 observations 2025 July 25-Aug. 29, mean residual 1".3.                  
                                                                                
Ephemeris:
Date    TT    R. A. (2000) Decl.     Delta      r    Elong.  Phase   m1
2025 07 30    03 36 54.1 -18 17 50   2.3296  2.4132    82.3    24.6  20.0
...
2025 08 14    03 15 55.1 -22 32 04   2.0918  2.4712    99.6    23.8  19.8
...
2025 08 22    02 59 03.4 -25 14 52   1.9790  2.5059   109.6    22.4  19.8
...
2025 08 28    02 43 10.3 -27 24 17   1.9069  2.5337   117.2    20.8  19.7
2025 08 29    02 40 14.0 -27 46 02   1.8962  2.5384   118.5    20.5  19.7
2025 08 30    02 37 12.5 -28 07 45   1.8860  2.5432   119.8    20.2  19.7
...
2025 09 05    02 17 15.9 -30 15 12   1.8342  2.5727   127.2    18.2  19.7
...
2025 09 13    01 46 09.5 -32 45 44   1.7953  2.6140   136.0    15.5  19.7
...
2025 09 28    00 39 35.8 -35 20 45   1.8328  2.6970   142.4    13.1  19.9

(MPEC 2025-Q231、CBET 5598)

フラット表示 前のトピック | 次のトピック

題名 投稿者 日時
 » Comet C/2025 O2 (MAPS) 佐藤裕久 2025-9-3 17:18

投稿するにはまず登録を
 
© 1999 Tsutomu Seki.